FW3031 Weather Reports


time (UTC)temp
F
wind
direction
speed
knots
gust
knots
rain 1hr
in
rain 24hr
in
rain mn
in
humidity
%
barometer
mb
20260901161044 80 190 0.0 4.3 0.00 0.00 0.00 61 1017.9
20260901160542 80 190 0.0 3.5 0.00 0.00 0.00 61 1017.9
20260901160106 79 0 0.0 4.3 0.00 0.00 0.00 61 1016.0
20260901160041 79 190 0.0 0.9 0.00 0.00 0.00 62 1018.0
20260901155539 78 190 0.0 4.3 0.00 0.00 0.00 63 1018.0
20260901155041 78 190 1.7 4.3 0.00 0.00 0.00 63 1018.1
20260901154605 78 190 0.9 2.6 0.00 0.00 0.00 63 1016.2
20260901154538 78 190 0.0 2.6 0.00 0.00 0.00 63 1018.1
20260901154037 78 190 0.0 0.9 0.00 0.00 0.00 63 1018.1
20260901153535 77 190 0.0 3.5 0.00 0.00 0.00 64 1018.1
20260901153108 77 190 0.9 3.5 0.00 0.00 0.00 65 1016.1
20260901153041 77 190 0.9 3.5 0.00 0.00 0.00 65 1018.2
20260901152534 76 190 0.0 3.5 0.00 0.00 0.00 66 1018.2
20260901152032 76 190 0.9 2.6 0.00 0.00 0.00 66 1018.1
20260901151607 76 0 0.0 2.6 0.00 0.00 0.00 67 1015.9
20260901151531 76 190 0.0 1.7 0.00 0.00 0.00 68 1018.0
20260901151030 76 190 0.0 2.6 0.00 0.00 0.00 68 1018.0
20260901150529 75 190 0.0 2.6 0.00 0.00 0.00 68 1017.9
20260901150108 75 0 0.0 2.6 0.00 0.00 0.00 69 1015.7
20260901150030 75 190 0.0 1.7 0.00 0.00 0.00 70 1017.9
20260901145528 75 190 0.0 2.6 0.00 0.00 0.00 71 1017.9
20260901145026 74 190 0.0 1.7 0.00 0.00 0.00 72 1017.9
20260901144611 74 0 0.0 1.7 0.00 0.00 0.00 73 1015.7
20260901144527 74 190 0.0 1.7 0.00 0.00 0.00 73 1017.9
20260901144027 73 190 0.0 1.7 0.00 0.00 0.00 74 1017.9
20260901143527 73 190 0.0 2.6 0.00 0.00 0.00 74 1018.0
20260901143116 73 190 0.0 2.6 0.00 0.00 0.00 74 1015.7
20260901143027 73 190 0.0 2.6 0.00 0.00 0.00 74 1018.1
20260901142528 73 190 0.0 1.7 0.00 0.00 0.00 75 1018.1
20260901142026 73 190 0.0 0.0 0.00 0.00 0.00 75 1018.1
20260901141616 72 0 0.0 0.0 0.00 0.00 0.00 75 1015.7
20260901141535 72 190 0.0 0.0 0.00 0.00 0.00 76 1018.1
20260901141026 72 190 0.0 0.0 0.00 0.00 0.00 76 1018.1
20260901140529 71 190 0.0 0.0 0.00 0.00 0.00 77 1018.2
20260901140107 71 0 0.0 0.0 0.00 0.00 0.00 78 1015.8
20260901140029 71 190 0.0 0.0 0.00 0.00 0.00 78 1018.3
20260901135529 71 190 0.0 0.0 0.00 0.00 0.00 79 1018.3
20260901135033 70 190 0.0 0.0 0.00 0.00 0.00 79 1018.3
20260901134628 70 0 0.0 0.0 0.00 0.00 0.00 79 1015.8
20260901134529 70 190 0.0 0.0 0.00 0.00 0.00 80 1018.3
20260901134024 70 190 0.0 0.0 0.00 0.00 0.00 80 1018.3
20260901133524 69 190 0.0 0.9 0.00 0.00 0.00 82 1018.2
20260901133103 69 0 0.0 0.9 0.00 0.00 0.00 81 1015.7
20260901133023 69 190 0.0 0.9 0.00 0.00 0.00 82 1018.2
20260901132523 69 190 0.0 0.0 0.00 0.00 0.00 82 1018.2
20260901132023 68 190 0.0 0.0 0.00 0.00 0.00 83 1018.2
20260901131612 68 190 0.0 0.0 0.00 0.00 0.00 82 1015.7
20260901131531 68 190 0.0 0.0 0.00 0.00 0.00 83 1018.2
20260901131022 68 190 0.0 0.0 0.00 0.00 0.00 83 1018.1
20260901130521 68 190 0.0 0.0 0.00 0.00 0.00 83 1018.0
20260901130106 68 0 0.0 0.0 0.00 0.00 0.00 82 1015.6
20260901130020 68 190 0.0 0.0 0.00 0.00 0.00 82 1018.0
20260901125519 68 190 0.0 0.0 0.00 0.00 0.00 82 1017.9
20260901125018 68 190 0.0 0.0 0.00 0.00 0.00 82 1017.8
20260901124609 68 0 0.0 0.0 0.00 0.00 0.00 81 1015.5
20260901124517 68 190 0.0 0.0 0.00 0.00 0.00 82 1017.8
20260901124019 68 190 0.0 0.0 0.00 0.00 0.00 82 1017.8
20260901123519 68 190 0.0 0.0 0.00 0.00 0.00 82 1017.7
20260901123101 68 0 0.0 0.0 0.00 0.00 0.00 81 1015.4
20260901123017 68 190 0.0 0.0 0.00 0.00 0.00 81 1017.8
20260901122516 68 190 0.0 0.0 0.00 0.00 0.00 81 1017.8
20260901122015 68 190 0.0 0.0 0.00 0.00 0.00 81 1017.7
20260901121609 68 0 0.0 0.0 0.00 0.00 0.00 81 1015.3
20260901121520 68 190 0.0 0.0 0.00 0.00 0.00 81 1017.6
20260901121015 68 190 0.0 0.0 0.00 0.00 0.00 81 1017.6
20260901120513 69 190 0.0 0.0 0.00 0.00 0.00 81 1017.6
20260901120106 69 0 0.0 0.0 0.00 0.00 0.00 81 1015.3
20260901120012 69 190 0.0 0.0 0.00 0.00 0.00 81 1017.5
20260901115514 69 190 0.0 0.0 0.00 0.00 0.00 81 1017.5
20260901115012 69 190 0.0 0.0 0.00 0.00 0.00 80 1017.4
20260901114604 69 0 0.0 2.6 0.00 0.00 0.00 80 1015.1
20260901114511 69 190 0.0 2.6 0.00 0.00 0.00 80 1017.4
20260901114010 69 190 0.0 2.6 0.00 0.00 0.00 80 1017.3
20260901113510 69 190 0.0 1.7 0.00 0.00 0.00 80 1017.2
20260901113107 69 0 0.0 1.7 0.00 0.00 0.00 79 1015.1
20260901113010 69 190 0.0 1.7 0.00 0.00 0.00 80 1017.2
20260901112509 69 190 0.0 1.7 0.00 0.00 0.00 80 1017.1
20260901112013 69 190 0.0 1.7 0.00 0.00 0.00 80 1017.2
20260901111603 69 0 0.0 1.7 0.00 0.00 0.00 79 1015.0
20260901111509 69 190 0.0 1.7 0.00 0.00 0.00 80 1017.1
20260901111008 69 190 0.9 1.7 0.00 0.00 0.00 79 1017.2
20260901110507 69 190 0.0 1.7 0.00 0.00 0.00 80 1017.2
20260901110107 70 0 0.0 1.7 0.00 0.00 0.00 79 1015.0
20260901110008 69 190 0.0 1.7 0.00 0.00 0.00 79 1017.1
20260901105508 69 190 0.0 1.7 0.00 0.00 0.00 80 1017.2
20260901105007 69 190 0.0 1.7 0.00 0.00 0.00 80 1017.1
20260901104602 69 190 0.0 3.5 0.00 0.00 0.00 80 1015.0
20260901104509 69 190 0.0 2.6 0.00 0.00 0.00 80 1017.1
20260901104006 69 190 0.0 3.5 0.00 0.00 0.00 80 1017.1
20260901103504 70 190 0.9 2.6 0.00 0.00 0.00 80 1017.1
20260901103107 70 0 0.0 0.0 0.00 0.00 0.00 79 1014.9
20260901103005 70 190 0.0 0.0 0.00 0.00 0.00 79 1017.0
20260901102504 70 190 0.0 0.0 0.00 0.00 0.00 79 1016.9
20260901102004 70 190 0.0 0.0 0.00 0.00 0.00 79 1016.9
20260901101606 70 0 0.0 0.0 0.00 0.00 0.00 78 1014.7
20260901101504 70 190 0.0 0.0 0.00 0.00 0.00 79 1016.8
20260901101003 70 190 0.0 0.0 0.00 0.00 0.00 78 1016.9
20260901100504 70 190 0.0 0.9 0.00 0.00 0.00 78 1016.8
20260901100002 70 190 0.0 0.9 0.00 0.00 0.00 78 1016.9
20260901095600 71 190 0.0 0.0 0.00 0.00 0.00 78 1016.9
20260901095058 71 190 0.0 0.0 0.00 0.00 0.00 77 1016.9
20260901094602 71 190 0.0 0.0 0.00 0.00 0.00 76 1016.8
20260901094600 71 0 0.0 0.0 0.00 0.00 0.00 76 1014.7
20260901094057 71 190 0.0 0.0 0.00 0.00 0.00 76 1016.9
20260901093556 71 190 0.0 0.0 0.00 0.00 0.00 76 1017.0
20260901093112 71 0 0.0 0.0 0.00 0.00 0.00 75 1014.7
20260901093056 71 190 0.0 0.0 0.00 0.00 0.00 76 1016.8
20260901092557 71 190 0.0 0.0 0.00 0.00 0.00 75 1016.9
20260901092054 72 190 0.0 0.0 0.00 0.00 0.00 75 1016.9
20260901091604 72 0 0.0 0.0 0.00 0.00 0.00 76 1014.8
20260901091553 72 190 0.0 0.0 0.00 0.00 0.00 76 1017.0
20260901091053 72 190 0.0 0.0 0.00 0.00 0.00 76 1017.0
20260901090552 72 190 0.0 0.0 0.00 0.00 0.00 75 1017.1
20260901090104 72 0 0.0 0.0 0.00 0.00 0.00 75 1015.0
20260901090057 72 190 0.0 0.0 0.00 0.00 0.00 75 1017.0
20260901085551 72 190 0.0 0.0 0.00 0.00 0.00 75 1017.0
20260901085050 72 190 0.0 0.0 0.00 0.00 0.00 74 1017.1
20260901084607 72 0 0.0 0.0 0.00 0.00 0.00 72 1014.9
20260901084050 72 190 0.0 0.0 0.00 0.00 0.00 73 1017.1
20260901083549 72 190 0.0 2.6 0.00 0.00 0.00 73 1017.0
20260901083107 73 0 0.9 2.6 0.00 0.00 0.00 72 1014.9
20260901083050 72 190 0.0 2.6 0.00 0.00 0.00 72 1017.1
20260901082547 73 190 0.9 2.6 0.00 0.00 0.00 73 1017.2
20260901082048 73 190 0.0 0.0 0.00 0.00 0.00 73 1017.2
20260901081603 73 0 0.0 0.0 0.00 0.00 0.00 73 1015.0
20260901081546 73 190 0.0 0.0 0.00 0.00 0.00 73 1017.2
20260901081045 73 190 0.0 0.0 0.00 0.00 0.00 71 1017.3
20260901080548 73 190 0.0 0.0 0.00 0.00 0.00 72 1017.4
20260901080109 73 0 0.0 0.0 0.00 0.00 0.00 71 1015.2
20260901080044 73 190 0.0 0.0 0.00 0.00 0.00 71 1017.3
20260901075543 74 190 0.0 0.0 0.00 0.00 0.00 71 1017.4
20260901075041 74 190 0.0 0.0 0.00 0.00 0.00 71 1017.5
20260901074616 74 0 0.0 0.0 0.00 0.00 0.00 70 1015.3
20260901074541 74 190 0.0 0.0 0.00 0.00 0.00 70 1017.5
20260901074044 74 190 0.0 0.0 0.00 0.00 0.00 69 1017.5
20260901073542 74 190 0.0 0.0 0.00 0.00 0.00 69 1017.5
20260901073105 74 0 0.0 1.7 0.00 0.00 0.00 68 1015.4
20260901073041 74 190 0.0 1.7 0.00 0.00 0.00 69 1017.6
20260901072541 74 190 0.0 1.7 0.00 0.00 0.00 68 1017.6
20260901072041 74 190 0.0 3.5 0.00 0.00 0.00 69 1017.5
20260901071607 74 0 2.6 5.2 0.00 0.00 0.00 68 1015.3
20260901071539 74 190 1.7 5.2 0.00 0.00 0.00 68 1017.5
20260901071039 74 190 1.7 4.3 0.00 0.00 0.00 69 1017.4
20260901070540 74 190 0.0 5.2 0.00 0.00 0.00 69 1017.4
20260901070106 74 190 1.7 5.2 0.00 0.00 0.00 68 1015.4
20260901070039 74 190 1.7 5.2 0.00 0.00 0.00 69 1017.5
20260901065538 74 190 0.0 4.3 0.00 0.03 0.00 70 1017.4
20260901065038 74 190 0.9 2.6 0.00 0.03 0.00 70 1017.4
20260901064603 74 190 0.0 2.6 0.00 0.03 0.00 69 1015.3
20260901064539 74 190 0.0 1.7 0.00 0.03 0.00 70 1017.4
20260901064036 74 190 0.0 2.6 0.00 0.03 0.00 69 1017.3
20260901063537 74 190 0.0 2.6 0.00 0.03 0.00 69 1017.2
20260901063106 74 0 0.0 3.5 0.00 0.03 0.00 69 1015.2
20260901063036 74 190 0.0 3.5 0.00 0.03 0.00 69 1017.2
20260901062535 74 190 0.9 3.5 0.00 0.03 0.00 69 1017.2
20260901062035 74 190 0.0 4.3 0.00 0.03 0.00 69 1017.2
20260901061609 74 190 0.9 3.5 0.00 0.03 0.00 69 1015.3
20260901061542 74 190 0.9 3.5 0.00 0.03 0.00 69 1017.3
20260901061034 74 190 1.7 3.5 0.00 0.03 0.00 69 1017.3
20260901060533 74 190 0.0 1.7 0.00 0.03 0.00 69 1017.3
20260901060111 75 0 0.0 1.7 0.00 0.03 0.00 68 1015.4
20260901060035 74 190 0.0 1.7 0.00 0.03 0.00 68 1017.3
20260901055531 75 190 0.0 2.6 0.00 0.06 0.03 68 1017.3
20260901055030 75 190 0.0 2.6 0.00 0.06 0.03 68 1017.2
20260901054602 75 0 0.9 3.5 0.00 0.05 0.03 68 1015.6
20260901054533 75 190 0.9 3.5 0.00 0.06 0.03 68 1017.4
20260901054031 75 190 0.0 2.6 0.00 0.06 0.03 68 1017.5
20260901053531 75 190 0.0 1.7 0.00 0.06 0.03 68 1017.6
20260901053107 75 0 0.0 7.0 0.00 0.05 0.03 67 1015.9
20260901053030 75 190 0.0 7.0 0.00 0.06 0.03 68 1017.7
20260901052529 75 190 0.0 7.0 0.00 0.06 0.03 68 1017.8
20260901052029 75 190 1.7 6.1 0.00 0.06 0.03 67 1017.9
20260901051607 75 190 0.9 8.7 0.00 0.05 0.03 67 1016.2
20260901051533 75 190 0.9 8.7 0.00 0.06 0.03 68 1018.1
20260901051029 75 190 0.9 8.7 0.00 0.06 0.03 69 1018.3
20260901050529 75 190 0.9 8.7 0.00 0.06 0.03 70 1018.3
20260901050104 75 190 3.5 11.3 0.00 0.05 0.03 70 1016.6
20260901050028 75 190 2.6 11.3 0.00 0.06 0.03 71 1018.4
20260901045527 76 190 2.6 11.3 0.00 0.06 0.03 69 1018.3
20260901045025 77 190 3.5 7.8 0.00 0.06 0.03 68 1018.1
20260901044630 78 190 1.7 4.3 0.00 0.05 0.03 70 1016.2
20260901044532 78 190 0.9 5.2 0.00 0.06 0.03 71 1017.9
20260901044025 78 190 1.7 3.5 0.00 0.06 0.03 71 1017.7
20260901043525 78 190 0.9 4.3 0.00 0.06 0.03 72 1017.6
20260901043103 78 190 0.0 2.6 0.00 0.05 0.03 71 1015.7
20260901043027 78 190 0.9 2.6 0.00 0.06 0.03 72 1017.4
20260901042524 78 190 0.0 2.6 0.00 0.06 0.03 72 1017.3
20260901042024 78 190 0.9 1.7 0.00 0.06 0.03 71 1017.3
20260901041559 79 0 0.0 0.0 0.00 0.05 0.03 70 1015.4
20260901041526 79 190 0.0 0.0 0.00 0.06 0.03 70 1017.3
20260901041024 78 190 0.0 0.0 0.00 0.06 0.03 70 1017.2
20260901040524 79 190 0.0 1.7 0.00 0.06 0.03 70 1017.0
20260901040115 79 0 0.0 1.7 0.00 0.05 0.03 69 1014.9
20260901040030 79 190 0.0 1.7 0.00 0.06 0.03 70 1016.8
20260901035526 79 190 0.0 1.7 0.00 0.06 0.03 69 1016.8
20260901035024 79 190 0.0 2.6 0.00 0.06 0.03 69 1016.7
20260901034603 79 0 0.0 5.2 0.00 0.05 0.03 68 1014.6
20260901034530 79 190 0.0 5.2 0.00 0.06 0.03 69 1016.6
20260901034023 79 190 1.7 5.2 0.00 0.06 0.03 68 1016.5
20260901033523 79 190 0.0 3.5 0.00 0.06 0.03 69 1016.4
20260901033100 79 190 0.9 3.5 0.00 0.05 0.03 68 1014.4
20260901033023 79 190 0.9 3.5 0.00 0.06 0.03 69 1016.3
20260901032523 79 190 0.9 3.5 0.00 0.06 0.03 69 1016.2
20260901032023 79 190 0.0 0.0 0.00 0.06 0.03 69 1016.2
20260901031605 79 0 0.0 0.0 0.00 0.05 0.03 68 1014.3
20260901031542 79 190 0.0 0.0 0.00 0.06 0.03 69 1016.1
20260901031022 79 190 0.0 0.9 0.00 0.06 0.03 69 1016.0
20260901030522 79 190 0.0 0.9 0.00 0.06 0.03 68 1015.8
20260901030105 79 0 0.0 0.0 0.00 0.05 0.03 68 1014.0
20260901030024 79 190 0.0 0.0 0.00 0.06 0.03 68 1015.8
20260901025522 79 190 0.0 0.0 0.00 0.06 0.03 67 1015.7
20260901025022 80 190 0.0 0.0 0.00 0.06 0.03 67 1015.6
20260901024559 80 0 0.0 0.9 0.00 0.05 0.03 66 1013.6
20260901024526 80 190 0.0 0.0 0.00 0.06 0.03 67 1015.4
20260901024022 80 190 0.0 0.9 0.00 0.06 0.03 67 1015.3
20260901023526 80 190 0.0 0.0 0.00 0.06 0.03 66 1015.2
20260901023102 80 0 0.0 1.7 0.00 0.05 0.03 66 1013.2
20260901023024 80 190 0.0 0.0 0.00 0.06 0.03 66 1015.1
20260901022525 80 190 0.0 1.7 0.00 0.06 0.03 66 1015.0
20260901022023 80 190 0.0 1.7 0.00 0.06 0.03 67 1014.9
20260901021605 80 0 0.0 2.6 0.00 0.05 0.03 66 1012.9
20260901021521 80 190 0.0 2.6 0.00 0.06 0.03 66 1014.8
20260901021021 80 190 0.9 2.6 0.00 0.06 0.03 65 1014.7
20260901020521 80 190 0.0 1.7 0.00 0.06 0.03 64 1014.6
20260901020020 80 190 0.0 1.7 0.00 0.06 0.03 64 1014.5
20260901015521 80 190 0.0 2.6 0.00 0.06 0.03 63 1014.4
20260901015020 80 190 0.0 2.6 0.00 0.06 0.03 62 1014.2
20260901014601 81 190 0.9 1.7 0.00 0.05 0.03 61 1012.2
20260901014520 81 190 0.9 1.7 0.00 0.06 0.03 62 1014.1
20260901014024 81 190 0.0 0.9 0.00 0.06 0.03 61 1013.9
20260901013524 81 190 0.0 1.7 0.00 0.06 0.03 61 1013.9
20260901013114 81 0 0.0 2.6 0.00 0.05 0.03 60 1012.0
20260901013020 81 190 0.0 2.6 0.00 0.06 0.03 60 1013.9
20260901012520 81 190 0.0 2.6 0.00 0.06 0.03 60 1013.7
20260901012022 81 190 0.0 1.7 0.00 0.06 0.03 60 1013.6
20260901011602 82 0 0.0 3.5 0.00 0.05 0.03 61 1011.8
20260901011519 81 190 0.0 0.9 0.00 0.06 0.03 61 1013.5
20260901011019 82 190 0.0 3.5 0.00 0.06 0.03 61 1013.4
20260901010519 82 190 0.9 3.5 0.00 0.06 0.03 60 1013.3
20260901010113 82 0 0.0 0.0 0.00 0.05 0.03 61 1011.6
20260901010032 82 190 0.0 0.0 0.00 0.06 0.03 61 1013.3
20260901005518 82 190 0.0 0.0 0.00 0.06 0.03 61 1013.2
20260901005022 82 190 0.0 0.0 0.00 0.06 0.03 60 1013.2
20260901004608 83 0 0.0 1.7 0.00 0.05 0.03 60 1011.5
20260901004518 82 190 0.0 1.7 0.00 0.06 0.03 60 1013.1
20260901004018 83 190 0.0 1.7 0.00 0.06 0.03 60 1013.0
20260901003517 83 190 0.0 1.7 0.00 0.06 0.03 59 1012.9
20260901003100 83 0 0.0 3.5 0.00 0.05 0.03 59 1011.3
20260901003018 83 190 0.0 3.5 0.00 0.06 0.03 59 1012.8
20260901002517 83 190 0.9 3.5 0.00 0.06 0.03 59 1012.7
20260901002021 83 190 0.9 3.5 0.00 0.06 0.03 58 1012.7
20260901001603 84 190 0.9 4.3 0.00 0.05 0.03 58 1011.1
20260901001524 83 190 0.9 4.3 0.00 0.06 0.03 58 1012.7
20260901001017 84 190 0.9 5.2 0.00 0.06 0.03 58 1012.6
20260901000521 84 190 2.6 5.2 0.00 0.06 0.03 57 1012.5
20260901000105 85 190 1.7 4.3 0.00 0.05 0.03 56 1010.9
20260901000017 84 190 1.7 4.3 0.00 0.06 0.03 56 1012.5
20260831235517 85 190 0.9 4.3 0.00 0.06 0.03 57 1012.5
20260831235016 85 190 0.9 4.3 0.00 0.06 0.03 57 1012.5
20260831234605 85 0 0.0 4.3 0.00 0.05 0.03 56 1010.9
20260831234517 85 190 0.0 4.3 0.00 0.06 0.03 56 1012.3
20260831234016 85 190 1.7 6.1 0.00 0.06 0.03 55 1012.4
20260831233519 85 190 1.7 6.1 0.00 0.06 0.03 55 1012.3
20260831233059 86 0 1.7 5.2 0.00 0.05 0.03 53 1010.8
20260831233017 86 190 1.7 5.2 0.00 0.06 0.03 54 1012.2
20260831232515 86 190 1.7 5.2 0.00 0.06 0.03 53 1012.2
20260831232015 86 190 0.9 7.8 0.00 0.06 0.03 54 1012.2
20260831231604 87 190 4.3 7.8 0.00 0.05 0.03 53 1010.7
20260831231515 87 190 3.5 7.8 0.00 0.06 0.03 53 1012.2
20260831231014 87 190 0.9 5.2 0.00 0.06 0.03 54 1012.1
20260831230514 87 190 0.9 5.2 0.00 0.06 0.03 54 1012.1
20260831230106 87 190 2.6 7.0 0.00 0.05 0.03 53 1010.7
20260831230014 87 190 2.6 7.0 0.00 0.06 0.03 53 1012.1
20260831225512 87 190 3.5 7.0 0.00 0.06 0.03 53 1012.1
20260831225011 86 190 1.7 5.2 0.00 0.06 0.03 53 1012.1
20260831224602 86 190 1.7 5.2 0.00 0.05 0.03 54 1010.7
20260831224510 86 190 0.9 5.2 0.00 0.06 0.03 54 1012.1
20260831224009 86 190 2.6 5.2 0.00 0.06 0.03 54 1012.1
20260831223508 85 190 0.9 5.2 0.00 0.06 0.03 57 1012.1
20260831223105 85 190 2.6 7.8 0.00 0.05 0.03 56 1010.9
20260831223007 85 190 1.7 5.2 0.00 0.06 0.03 57 1012.1
20260831222607 85 190 0.9 7.8 0.00 0.06 0.03 59 1012.1
20260831222006 85 190 1.7 7.8 0.00 0.06 0.03 58 1012.3
20260831221629 85 190 1.7 5.2 0.00 0.05 0.03 58 1011.0
20260831221518 85 190 0.9 5.2 0.00 0.06 0.03 59 1012.3
20260831221004 85 190 1.7 5.2 0.00 0.06 0.03 59 1012.3
20260831220505 84 190 0.9 5.2 0.00 0.06 0.03 61 1012.3
20260831220110 84 190 2.6 5.2 0.00 0.05 0.03 60 1011.1
20260831220004 84 190 2.6 5.2 0.00 0.06 0.03 60 1012.4
20260831215503 84 190 1.7 5.2 0.00 0.06 0.03 61 1012.4
20260831215001 84 190 0.9 4.3 0.00 0.06 0.03 60 1012.5
20260831214601 84 0 1.7 4.3 0.00 0.05 0.03 61 1011.3
20260831214100 84 190 0.9 4.3 0.00 0.06 0.03 61 1012.6
20260831214000 84 190 0.9 4.3 0.00 0.06 0.03 62 1012.5
20260831213559 83 190 1.7 4.3 0.00 0.06 0.03 60 1012.6
20260831213103 84 190 0.9 5.2 0.00 0.05 0.03 60 1011.5
20260831213059 84 190 0.9 4.3 0.00 0.06 0.03 60 1012.8
20260831212559 84 190 1.7 5.2 0.00 0.06 0.03 60 1012.8
20260831212058 84 190 1.7 3.5 0.00 0.06 0.03 62 1013.0
20260831211609 84 190 1.7 5.2 0.00 0.06 0.03 60 1013.1
20260831211605 84 190 1.7 6.1 0.00 0.05 0.03 59 1011.7
20260831211056 84 190 1.7 6.1 0.00 0.06 0.03 61 1013.1
20260831210556 84 190 1.7 6.1 0.00 0.06 0.03 60 1013.2
20260831210104 84 190 2.6 6.1 0.00 0.05 0.03 59 1011.9
20260831210055 84 190 1.7 6.1 0.00 0.06 0.03 59 1013.3
20260831210025 84 190 1.7 6.1 0.00 0.06 0.03 59 1013.3
20260831205554 85 190 1.7 5.2 0.00 0.06 0.03 59 1013.4
20260831205054 84 190 0.9 4.3 0.00 0.06 0.03 59 1013.5
20260831204606 85 190 0.0 5.2 0.00 0.05 0.03 58 1012.1
20260831204553 85 190 0.0 5.2 0.00 0.06 0.03 58 1013.5
20260831204052 85 190 2.6 5.2 0.00 0.06 0.03 58 1013.6
20260831203550 85 190 1.7 5.2 0.00 0.06 0.03 59 1013.8
20260831203137 84 190 2.6 5.2 0.00 0.05 0.03 58 1012.4
20260831203050 84 190 2.6 5.2 0.00 0.06 0.03 58 1013.8
20260831202548 84 190 0.9 5.2 0.00 0.06 0.03 59 1014.0
20260831202048 85 190 2.6 5.2 0.00 0.06 0.03 58 1014.1
20260831201608 85 190 0.0 3.5 0.00 0.05 0.03 58 1012.7
20260831201552 85 190 0.0 3.5 0.00 0.06 0.03 58 1014.2
20260831201048 84 190 0.9 3.5 0.00 0.06 0.03 59 1014.3
20260831200546 84 190 0.0 5.2 0.00 0.06 0.03 59 1014.3
20260831200141 84 190 0.9 6.1 0.00 0.05 0.03 59 1013.0
20260831200045 84 190 0.9 6.1 0.00 0.06 0.03 60 1014.4
20260831195543 84 190 1.7 6.1 0.00 0.06 0.03 58 1014.6
20260831195043 84 190 0.9 5.2 0.00 0.06 0.03 59 1014.6
20260831194620 84 190 1.7 5.2 0.00 0.05 0.03 59 1013.3
20260831194615 84 190 0.9 5.2 0.00 0.06 0.03 61 1014.7
20260831194040 83 190 1.7 6.1 0.00 0.06 0.03 61 1014.9
20260831193540 84 190 1.7 6.1 0.00 0.06 0.03 61 1014.9
20260831193102 84 0 1.7 5.2 0.00 0.05 0.03 61 1013.6
20260831193039 84 190 0.0 5.2 0.00 0.06 0.03 61 1015.0
20260831192538 84 190 2.6 5.2 0.00 0.06 0.03 61 1015.1
20260831192037 84 190 0.9 7.8 0.00 0.06 0.03 62 1015.2
20260831191619 83 190 2.6 7.8 0.00 0.05 0.03 62 1013.8
20260831191538 83 190 3.5 7.8 0.00 0.06 0.03 62 1015.3
20260831191036 83 190 1.7 6.1 0.00 0.06 0.03 61 1015.4
20260831190536 83 190 0.9 6.1 0.00 0.06 0.03 62 1015.5
20260831190109 83 190 3.5 7.8 0.00 0.05 0.03 62 1014.1
20260831190039 83 190 3.5 7.0 0.00 0.06 0.03 62 1015.5
20260831185535 83 190 2.6 7.8 0.00 0.06 0.03 62 1015.6
20260831185034 83 190 3.5 7.8 0.00 0.06 0.03 62 1015.7
20260831184600 83 190 1.7 6.1 0.00 0.05 0.03 62 1014.3
20260831184543 83 190 1.7 6.1 0.00 0.06 0.03 62 1015.9
20260831184033 83 190 1.7 6.1 0.00 0.06 0.03 62 1016.0
20260831183533 82 190 2.6 7.0 0.00 0.06 0.03 63 1016.1
20260831183109 83 190 3.5 7.8 0.00 0.05 0.03 61 1014.7
20260831183033 82 190 1.7 7.8 0.00 0.06 0.03 61 1016.2
20260831182533 83 190 4.3 7.8 0.00 0.06 0.03 61 1016.2
20260831182032 83 190 0.0 5.2 0.00 0.06 0.03 61 1016.3
20260831181606 83 190 0.0 5.2 0.00 0.05 0.03 60 1014.9
20260831181533 83 190 0.9 3.5 0.00 0.06 0.03 61 1016.3
20260831181031 83 190 0.0 5.2 0.00 0.06 0.03 61 1016.3
20260831180531 83 190 0.9 5.2 0.00 0.06 0.03 61 1016.4
20260831180113 83 0 0.0 5.2 0.00 0.05 0.03 61 1015.2
20260831180032 83 190 0.0 2.6 0.00 0.06 0.03 61 1016.4
20260831175531 83 190 0.9 5.2 0.00 0.06 0.03 61 1016.5
20260831175031 83 190 1.7 5.2 0.00 0.06 0.03 60 1016.6
20260831174603 83 0 0.0 2.6 0.00 0.05 0.03 61 1015.2
20260831174547 83 190 0.0 2.6 0.00 0.06 0.03 61 1016.6
20260831174034 83 190 0.9 2.6 0.00 0.06 0.03 60 1016.6
20260831173530 83 190 0.9 5.2 0.00 0.06 0.03 61 1016.7
20260831173108 83 190 0.9 4.3 0.00 0.05 0.03 60 1015.3
20260831173029 82 190 0.0 4.3 0.00 0.06 0.03 61 1016.7
20260831172527 82 190 0.0 4.3 0.00 0.06 0.03 63 1016.7
20260831172026 82 190 1.7 4.3 0.00 0.06 0.03 63 1016.8
20260831171605 81 0 0.0 4.3 0.00 0.05 0.03 63 1015.5
20260831171539 81 190 0.0 4.3 0.00 0.06 0.03 64 1016.8
20260831171024 81 190 0.9 4.3 0.00 0.06 0.03 65 1016.8
20260831170524 81 190 0.9 4.3 0.00 0.06 0.03 67 1016.8
20260831170103 80 0 0.9 3.5 0.00 0.05 0.03 67 1015.6
20260831170054 80 190 0.9 3.5 0.00 0.06 0.03 67 1016.9
20260831165522 80 190 0.0 3.5 0.00 0.06 0.03 68 1017.0
20260831165020 80 190 0.0 4.3 0.00 0.06 0.03 68 1017.0
20260831164602 80 190 1.7 5.2 0.00 0.05 0.03 67 1015.8
20260831164524 80 190 0.0 4.3 0.00 0.06 0.03 68 1017.1
20260831164022 79 190 2.6 5.2 0.00 0.06 0.03 69 1017.1
20260831163520 79 190 1.7 5.2 0.00 0.06 0.03 69 1017.2
20260831163103 80 190 1.7 4.3 0.00 0.05 0.03 69 1015.8
20260831163019 80 190 1.7 5.2 0.00 0.06 0.03 70 1017.2
20260831162521 80 190 1.7 4.3 0.00 0.06 0.03 67 1017.2
20260831162018 79 190 0.0 3.5 0.00 0.06 0.03 68 1017.3
20260831161611 79 0 0.9 3.5 0.00 0.05 0.03 68 1015.9
20260831161518 79 190 0.0 3.5 0.00 0.06 0.03 69 1017.3